Astrometry: 1967-040F C2009 06 16.33977 17 46 21.86 +10 25 04.9 x15.1 V D0245703 1967-040F C2009 06 16.34273 17 46 28.95 +10 25 13.8 x15.1 V D0245703 1967-040F C2009 06 16.34564 17 46 36.01 +10 25 21.7 x15.1 V D0245703 1967-040F C2009 06 16.36450 17 47 22.45 +10 25 57.7 x15.1 V D0245703 1967-040F C2009 06 16.36802 17 47 31.30 +10 26 01.7 x15.0 V D0245703 1967-040F C2009 06 16.37157 17 47 40.38 +10 26 04.8 x15.0 V D0245703 1967-040F C2009 06 16.43172 17 49 54.00 +10 21 36.2 x16.0 C D0245H10 1967-040F C2009 06 16.43223 17 49 55.77 +10 21 34.3 x15.3 C D0245H10 1967-040F C2009 06 16.43273 17 49 57.53 +10 21 32.5 x15.4 C D0245H10 1967-040F C2015 09 01.03811 21 02 34.46 -33 07 36.1 x16.4 R Y00 1967-040F C2015 09 01.03909 21 02 38.00 -33 07 51.5 x16.0 R Y00 1967-040F C2015 09 01.04021 21 02 42.25 -33 08 10.5 x15.9 R Y00 1967-040F C2015 09 05.07059 21 15 07.75 -33 29 13.8 x15.4 R Y00 1967-040F C2015 09 05.07115 21 15 10.00 -33 29 16.6 x16.0 R Y00 1967-040F C2015 09 05.07178 21 15 12.48 -33 29 20.3 x15.9 R Y00 1967-040F C2016 06 27.07442 20 52 29.36 -33 48 20.3 x15.2 RqD0549Y00 1967-040F C2016 06 27.07534 20 52 35.44 -33 48 41.2 x15.3 RqD0549Y00 1967-040F C2016 06 27.07636 20 52 42.06 -33 49 03.9 x15.4 RqD0549Y00 1967-040F C2016 07 05.31356 21 30 20.29 -32 44 57.9 x15.6 RqD0549Y00 1967-040F C2016 07 05.31504 21 30 26.27 -32 44 04.5 x15.5 RqD0549Y00 1967-040F C2016 07 05.31666 21 30 32.33 -32 43 05.6 x15.7 RqD0549Y00 1967-040F C2016 07 15.32728 21 56 47.56 -31 06 49.7 x15.2 RqD0550Y00 1967-040F C2016 07 15.32825 21 56 51.98 -31 06 00.7 x15.3 RqD0550Y00 1967-040F C2016 07 15.32926 21 56 56.56 -31 05 10.2 x15.2 RqD0550Y00 1967-040F C2016 07 31.21368 22 32 36.00 -29 11 46.1 x15.9 RqD0550Y00 1967-040F C2016 07 31.21516 22 32 42.99 -29 10 30.9 x15.3 RqD0550Y00 1967-040F C2016 07 31.21682 22 32 50.47 -29 09 08.7 x15.2 RqD0550Y00 1967-040F tC2016 08 02.91938 19 01 56.22 -32 42 46.6 x14.2 RqD0550Y00 1967-040F tC2016 08 02.92034 19 02 20.16 -32 44 48.9 x14.4 RqD0550Y00 1967-040F tC2016 08 02.92136 19 02 45.14 -32 46 56.6 x14.6 RqD0550Y00 1967-040F C2016 08 04.22946 22 46 40.11 -27 44 41.2 x15.2 RqD0550Y00 1967-040F C2016 08 04.23108 22 46 49.22 -27 42 53.5 x14.9 RqD0550Y00 1967-040F C2016 08 04.23270 22 46 58.07 -27 41 02.9 x15.3 RqD0550Y00 1967-040F C2016 08 08.11920 22 50 08.58 -28 02 47.0 x15.5 RqD0550Y00 1967-040F C2016 08 08.12019 22 50 14.54 -28 02 07.4 x15.5 RqD0550Y00 1967-040F C2016 08 08.12122 22 50 20.94 -28 01 24.3 x15.7 RqD0550Y00 1967-040F C2016 08 08.13903 22 52 08.36 -27 48 26.8 x15.2 RqD0550Y00 1967-040F C2016 08 08.14000 22 52 14.42 -27 47 40.3 x15.2 RqD0550Y00 1967-040F C2016 08 08.14094 22 52 19.89 -27 46 56.9 x15.1 RqD0550Y00 1967-040F C2016 08 27.08787 21 10 14.14 -33 49 49.1 x15.8 RqD0550Y00 1967-040F C2016 08 27.08957 21 10 20.27 -33 49 08.3 x15.2 RqD0550Y00 1967-040F C2016 08 27.09129 21 10 26.27 -33 48 25.2 x15.6 RqD0550Y00 1967-040F C2017 07 17.07712 21 51 56.76 -28 59 31.0 x15.6 RqD0557Y00 1967-040F C2017 07 17.07845 21 52 02.26 -28 58 53.1 x15.6 RqD0557Y00 1967-040F C2017 07 17.07949 21 52 06.50 -28 58 23.4 x15.4 RqD0557Y00 1967-040F C2017 07 27.17741 22 17 45.74 -24 55 16.8 x15.1 RqD0557Y00 1967-040F C2017 07 27.17876 22 17 48.88 -24 54 02.0 x15.7 RqD0557Y00 1967-040F C2017 07 27.17984 22 17 51.38 -24 53 03.5 x15.6 RqD0557Y00 1967-040F C2017 07 29.18034 22 22 02.08 -24 12 34.4 x16.2 RqD0557Y00 1967-040F C2017 07 29.18137 22 22 04.39 -24 11 35.7 x16.2 RqD0557Y00 1967-040F C2017 07 29.18235 22 22 06.75 -24 10 38.7 x15.8 RqD0557Y00 1967-040F C2017 07 29.19419 22 22 34.14 -23 58 51.8 x15.7 RqD0557Y00 1967-040F C2017 07 29.19528 22 22 36.65 -23 57 45.4 x15.7 RqD0557Y00 1967-040F C2017 07 29.19646 22 22 39.27 -23 56 31.3 x16.7 RqD0557Y00 1967-040F tC2017 08 01.23347 19 43 40.34 -37 16 55.3 x14.9 RqD0557Y00 1967-040F tC2017 08 01.23478 19 44 05.51 -37 14 37.7 x15.2 RqD0557Y00 1967-040F tC2017 08 01.23581 19 44 25.08 -37 12 49.4 x15.3 RqD0557Y00 1967-040F C2017 08 12.20364 22 54 15.01 -18 00 41.1 x15.2 RqD0557Y00 1967-040F C2017 08 12.20516 22 54 20.41 -17 58 14.7 x15.2 RqD0557Y00 1967-040F C2017 08 12.20615 22 54 23.63 -17 56 39.5 x14.9 RqD0557Y00 1967-040F tC2017 08 12.91417 19 39 04.49 -39 34 06.4 x14.5 RqD0557Y00 1967-040F tC2017 08 12.91513 19 39 30.06 -39 33 38.1 x14.8 RqD0557Y00 1967-040F tC2017 08 12.91685 19 40 14.67 -39 32 46.2 x14.7 RqD0557Y00 1967-040F C2017 08 31.23920 21 34 55.42 -27 52 15.6 x15.6 RqD0557Y00 1967-040F C2017 08 31.24079 21 35 03.06 -27 50 10.2 x15.7 RqD0557Y00 1967-040F C2017 08 31.24247 21 35 11.30 -27 47 58.3 x15.2 RqD0557Y00 1967-040F C2017 09 08.11081 21 45 08.85 -27 57 29.5 x15.8 RqD0557Y00 1967-040F C2017 09 08.11214 21 45 12.34 -27 56 00.4 x15.4 RqD0557Y00 1967-040F C2017 09 08.11380 21 45 16.58 -27 54 13.8 x15.7 RqD0557Y00 1967-040F C2017 09 13.97297 21 51 43.36 -28 11 26.2 x15.0 RqD0557Y00 1967-040F C2017 09 13.97433 21 51 47.38 -28 10 28.3 x15.5 RqD0557Y00 1967-040F C2017 09 13.97541 21 51 50.64 -28 09 41.9 x15.8 RqD0557Y00 1967-040F C2017 09 15.92514 21 53 23.34 -28 05 59.3 x15.5 RqD0557Y00 1967-040F C2017 09 15.92618 21 53 27.15 -28 05 23.5 x15.2 RqD0557Y00 1967-040F C2017 09 15.92722 21 53 31.10 -28 04 44.8 x15.6 RqD0557Y00 1967-040F C2017 09 18.06446 22 03 39.02 -25 36 11.7 x16.0 RqD0557Y00 1967-040F C2017 09 18.06596 22 03 42.22 -25 34 37.7 x15.9 RqD0557Y00 1967-040F C2017 09 18.06700 22 03 44.52 -25 33 32.9 x15.3 RqD0557Y00 1967-040F tC2017 10 12.18086 23 03 07.93 -11 58 47.4 x15.5 RqD0560Y00 1967-040F tC2017 10 12.18248 23 03 18.47 -11 54 53.4 x15.4 RqD0560Y00 1967-040F tC2017 10 12.18384 23 03 27.46 -11 51 31.8 x15.2 RqD0560Y00 1967-040F C2017 10 13.96872 22 53 42.29 -17 27 12.9 x15.3 RqD0560Y00 1967-040F C2017 10 13.96970 22 53 45.70 -17 25 48.5 x15.6 RqD0560Y00 1967-040F C2017 10 13.97101 22 53 50.09 -17 23 58.2 x15.3 RqD0560Y00 1967-040F C2017 10 16.03416 23 02 33.30 -14 37 50.6 x15.1 RqD0560Y00 1967-040F C2017 10 16.03513 23 02 36.90 -14 36 03.9 x14.8 RqD0560Y00 1967-040F C2017 10 16.03614 23 02 40.70 -14 34 12.4 x15.0 RqD0560Y00 1967-040F C2017 10 17.98454 23 04 57.25 -14 55 54.0 x15.2 RqD0560Y00 1967-040F C2017 10 17.98565 23 05 01.62 -14 53 58.6 x15.3 RqD0560Y00 1967-040F C2017 10 17.98677 23 05 05.90 -14 52 04.4 x15.4 RqD0560Y00 1967-040F tC2017 10 20.03853 23 14 51.58 -11 50 23.1 x15.3 RqD0560Y00 1967-040F tC2017 10 20.03953 23 14 56.39 -11 48 04.1 x15.3 RqD0560Y00 1967-040F tC2017 10 20.04056 23 15 01.53 -11 45 39.2 x15.1 RqD0560Y00 1967-040F C2017 11 20.08665 22 27 40.75 -23 15 36.4 x14.2 GUD0560703 1967-040F C2017 11 20.09212 22 27 56.19 -23 09 03.5 x UD0560703 1967-040F C2017 11 20.10309 22 28 26.94 -22 55 57.3 x14.2 GUD0560703 1967-040F C2017 11 24.10426 22 36 27.63 -21 23 39.7 x15.7 GU 703 1967-040F C2017 11 24.11101 22 36 48.29 -21 14 46.5 x15.8 GU 703 1967-040F C2017 11 24.12441 22 37 30.14 -20 56 50.4 x15.9 GU 703 ZM26670 C2018 06 18.45842 23 11 46.58 -10 50 11.7 15.3 GU 703 ZM26670 C2018 06 18.45853 23 11 47.14 -10 49 59.9 14.7 GU 703 ZM26670 C2018 06 18.45865 23 11 47.71 -10 49 47.5 14.7 GU 703 ZM26670 C2018 06 18.45876 23 11 48.30 -10 49 35.4 15.8 GU 703 1967-040F C2018 07 07.11536 21 20 47.37 -29 21 16.2 15.3 Rq Y00 1967-040F C2018 07 07.11638 21 20 52.60 -29 20 06.3 15.2 Rq Y00 1967-040F C2018 07 07.11744 21 20 57.94 -29 18 55.2 15.1 Rq Y00 1967-040F C2018 08 10.24908 22 32 52.64 -12 29 05.0 15.5 Rq Y00 1967-040F C2018 08 10.25014 22 32 54.98 -12 27 23.9 15.4 Rq Y00 1967-040F C2018 08 10.25204 22 32 59.02 -12 24 26.1 15.3 Rq Y00 1967-040F C2018 08 14.18523 22 38 19.20 -12 10 47.3 15.6 Rq Y00 1967-040F C2018 08 14.18625 22 38 21.11 -12 09 13.8 15.3 Rq Y00 1967-040F C2018 08 14.18720 22 38 22.80 -12 07 48.0 15.7 Rq Y00 1967-040F tC2018 08 20.33764 22 59 20.61 -03 50 01.7 15.4 Rq Y00 1967-040F tC2018 08 20.33908 22 59 28.99 -03 46 39.1 15.9 Rq Y00 1967-040F tC2018 08 20.34019 22 59 35.52 -03 43 58.1 15.5 Rq Y00 1967-040F tC2018 08 21.04182 20 23 55.09 -36 15 19.6 14.9 Rq Y00 1967-040F tC2018 08 21.04298 20 24 09.93 -36 12 34.4 14.1 Rq Y00 1967-040F tC2018 08 21.04389 20 24 21.90 -36 10 19.1 14.1 Rq Y00 1967-040F C2018 08 29.13731 21 10 12.50 -28 13 16.2 15.3 Rq Y00 1967-040F C2018 08 29.13872 21 10 19.37 -28 10 45.8 15.1 Rq Y00 1967-040F C2018 08 29.14051 21 10 28.25 -28 07 34.1 15.1 Rq Y00 1967-040F C2018 08 29.98257 23 00 38.83 -09 05 31.3 15.3 Rq Y00 1967-040F C2018 08 29.98354 23 00 43.61 -09 04 02.6 15.0 Rq Y00 1967-040F C2018 08 29.98463 23 00 48.86 -09 02 26.4 15.2 Rq Y00 1967-040F C2018 09 01.00386 23 07 00.50 -07 24 43.5 14.6 Rq Y00 1967-040F C2018 09 01.00486 23 07 05.47 -07 22 59.4 15.0 Rq Y00 1967-040F C2018 09 01.00590 23 07 10.51 -07 21 11.7 14.8 Rq Y00 1967-040F C2018 09 01.99383 21 10 38.59 -30 05 39.4 15.8 Rq Y00 1967-040F C2018 09 01.99494 21 10 44.37 -30 04 04.0 15.6 Rq Y00 1967-040F C2018 09 01.99586 21 10 49.25 -30 02 43.8 15.4 Rq Y00 ZR30E2A C2018 09 04.22714 21 45 16.32 -26 04 43.0 15.0 GV 703 ZR30E2A C2018 09 04.23253 21 45 30.83 -25 58 02.9 15.2 GV 703 ZR30E2A C2018 09 04.23792 21 45 45.19 -25 51 16.4 15.7 GV 703 ZR30E2A C2018 09 04.24331 21 45 59.39 -25 44 27.0 14.6 GV 703 Station data: (703) Catalina Sky Survey (N32.417006 W110.732640) US/Arizona. Observers G. J. Leonard, R. G. Matheny, B. M. Africano. Measurers E. J. Christensen, D. C. Fuls, A. R. Gibbs, A. D. Grauer, J. A. Johnson, R. A. Kowalski, S. M. Larson, G. J. Leonard, R. G. Matheny, R. L. Seaman, F. C. Shelly, B. M. Africano, H. Groeller, G. A. Farneth. 0.68-m Schmidt + 10K CCD. (H10) Tzec Maun Observatory, Mayhill (N32.903308 W105.528590) US/New Mexico. (Y00) SONEAR Observatory, Oliveira (S20.715082 W44.784960) Brazil. Observers C. Jacques, E. Pimentel, J. Barros. Measurer C. Jacques. 0.28-m f/2.2 astrograph + CCD. Orbital elements: 1967-040F = NORAD 02770 = Transtage 10 Perigee 2018 Sep 1.538059 +/- 1.43e-5 TT = 12:54:48 (JD 2458363.038059) Epoch 2018 Sep 1.0 TT; AMR 0.0064639 +/- 0.000677 m2/kg Gray M 261.3330101 +/- 0.0026 (J2000 equator) n 183.3756720578 +/- 1.7e-5 Peri. 152.5359918 +/- 0.0006 a 66228.109857 +/- 0.0041 Node 353.1615312 +/- 0.00023 e 0.829483521 +/- 2.81e-6 Incl. 43.3042754 +/- 0.00020 P2826.93m/1.963d H 30.4 G 0.15 U 5.4 q 11292.984081 +/- 0.186 Q 121163.23563 +/- 0.186 35 of 134 observations 2018 June 18-Sept. 4; mean residual 2".121
